Wind_Speed
25 27 30 31 32 32 32 32 31 31 33 34 33 33 34 35 36 36 36 35 34 33 32 32 31 30 30 30 30 29 29 29 28 28 27 27 27 26
22 24 26 28 30 31 32 32 32 31 31 31 32 33 34 34 35 35 35 35 34 34 33 33 32 31 31 31 31 30 30 30 29 29 29 29 28 28
19 21 23 25 27 29 30 31 31 31 31 31 32 32 33 33 34 35 35 34 34 34 34 33 34 34 33 33 32 32 31 31 31 31 31 31 30 29
16 18 20 22 24 26 28 29 30 30 30 30 30 31 32 34 33 33 34 34 33 34 33 33 33 33 33 33 33 33 32 32 31 31 31 31 31 31
12 15 17 19 22 24 26 27 28 29 30 30 30 30 30 31 31 31 31 31 32 32 32 32 32 32 32 32 33 33 33 33 32 32 32 32 31 31
8 11 14 16 19 21 23 25 26 27 28 29 30 30 30 31 31 31 31 31 31 31 31 31 31 32 32 31 32 32 32 32 31 31 32 32 32 32
7 9 12 13 16 18 20 22 24 25 27 28 28 30 31 31 30 30 29 29 30 30 30 30 30 30 30 30 30 30 30 30 30 30 30 30 30 31
6 8 10 11 13 15 17 19 20 22 24 26 27 28 29 29 29 29 29 30 29 30 31 30 29 30 30 29 29 29 29 30 30 30 29 29 29 29
7 7 8 9 11 13 15 17 18 19 20 22 24 25 26 28 27 27 28 29 29 30 30 30 29 29 29 30 30 30 30 30 30 30 30 30 29 29
8 7 6 7 8 10 12 13 14 15 17 19 21 22 23 24 25 26 27 27 28 29 29 29 29 29 30 30 30 29 29 29 29 28 28 29 29 28
9 7 6 6 6 8 9 11 13 14 15 17 18 20 21 22 23 24 25 25 26 27 27 28 28 28 29 29 28 27 27 27 26 26 26 27 26 25
10 8 7 6 6 6 8 9 10 11 13 14 15 17 18 20 21 22 23 23 23 24 24 24 25 26 25 26 25 25 25 25 24 24 23 23 23 23
11 10 8 7 6 7 7 7 9 10 11 12 13 14 16 17 18 20 21 21 21 22 23 23 24 24 23 23 23 23 23 23 22 22 22 22 22 22
12 11 9 8 7 7 7 7 7 7 9 10 12 12 13 15 16 18 19 19 20 20 21 22 22 22 22 21 21 21 21 21 22 22 22 22 22 21
13 11 10 10 9 8 7 7 7 7 7 8 9 11 12 14 15 16 18 19 19 19 19 19 19 20 19 19 19 19 19 20 20 21 21 20 19 18
14 13 11 11 10 9 8 7 7 7 7 7 8 9 10 11 13 14 15 16 17 17 17 17 18 18 18 18 18 19 19 19 20 19 18 18 18 17
13 13 12 11 11 10 9 8 7 7 7 7 7 7 8 9 10 11 13 14 15 15 16 17 17 16 16 17 17 17 16 17 16 16 16 16 16 15
14 14 13 12 12 11 11 10 9 9 8 8 8 9 9 9 10 11 12 12 12 13 14 15 15 15 16 16 15 15 15 15 15 15 15 15 15 15
16 15 14 14 13 12 12 11 11 10 9 9 9 10 10 10 10 10 10 11 11 12 12 13 14 14 15 15 15 15 15 15 15 15 15 15 15 15
18 17 16 16 15 14 13 13 12 11 11 11 10 10 10 11 11 12 12 12 12 12 12 13 13 14 14 15 15 15 15 15 15 15 15 16 16 16
21 20 19 18 17 16 16 15 14 13 13 13 13 13 13 13 13 14 14 14 13 13 14 14 14 14 14 14 15 15 15 16 16 16 17 16 16 16
25 24 23 22 21 20 19 18 17 17 16 16 16 16 16 16 16 15 16 16 16 16 16 16 16 16 16 16 16 16 16 17 17 18 17 17 16 16
29 28 27 26 25 24 24 23 22 21 21 20 20 19 19 19 18 18 18 18 18 18 18 18 18 18 18 18 17 17 17 17 17 17 17 17 17 17
Wind_Direction
240 239 238 237 238 238 238 239 240 241 240 241 240 240 241 242 241 240 240 242 244 246 247 249 250 251 253 254 257 259 262 263 264 266 268 270 272 275
239 238 238 237 237 238 239 240 241 242 242 242 242 243 243 243 242 241 242 243 244 245 247 248 249 252 254 254 256 258 261 262 264 265 266 269 271 274
241 237 236 236 236 237 239 240 241 242 242 242 241 243 244 243 242 240 241 242 244 246 248 248 249 252 254 255 256 258 259 261 263 265 266 268 270 273
241 236 236 236 236 237 238 239 240 241 241 242 242 243 244 244 243 242 243 243 245 247 248 249 250 251 252 255 256 258 259 260 262 263 265 267 269 274
245 240 239 239 238 237 238 239 240 241 242 243 243 244 244 244 243 243 244 245 246 248 249 251 251 251 253 256 257 257 258 261 262 263 265 267 269 273
252 246 244 243 240 238 238 239 241 242 243 244 245 245 244 245 245 245 245 244 245 248 249 250 251 253 255 257 257 258 260 262 264 265 265 268 269 272
270 259 251 249 244 240 240 240 243 246 246 247 246 245 245 245 246 245 243 243 244 245 247 249 250 251 253 255 256 258 261 261 263 265 266 268 270 272
295 277 260 254 248 245 244 243 245 248 249 249 248 246 244 245 246 245 245 245 244 243 246 247 249 250 252 254 256 259 260 262 264 265 266 268 270 271
323 302 277 261 253 249 248 248 248 251 251 250 250 249 246 245 247 247 247 247 246 244 244 245 248 250 251 253 256 258 260 262 264 266 267 269 269 271
339 327 303 278 265 255 251 251 250 250 251 249 248 247 245 246 245 246 246 245 245 245 245 245 248 251 252 253 255 258 260 262 263 265 267 268 269 269
349 339 324 301 284 271 260 255 253 250 252 251 249 247 244 243 243 245 247 246 245 243 245 248 250 251 251 252 255 256 258 260 262 265 268 269 267 266
359 351 339 320 299 289 275 268 263 258 255 253 250 246 243 242 242 243 245 243 242 240 242 245 246 247 249 252 253 254 257 259 262 265 267 268 267 267
358 352 347 338 321 306 291 277 267 264 259 254 249 245 242 239 239 242 242 240 239 239 241 243 246 247 249 252 251 251 254 256 260 261 263 267 268 267
0 356 350 342 330 318 304 289 279 273 262 256 250 244 241 239 239 240 239 240 241 241 242 244 245 247 249 250 251 252 254 257 260 262 264 265 265 264
357 356 353 349 342 331 319 303 293 286 269 257 250 247 243 242 238 235 236 240 241 242 243 242 243 246 247 246 247 249 252 257 260 262 262 260 260 261
351 349 346 345 342 337 331 321 304 291 274 266 262 253 247 247 243 240 239 241 245 246 243 242 245 245 245 247 250 252 255 257 259 259 256 255 259 260
341 341 338 337 335 332 328 322 314 303 289 277 269 263 253 250 251 250 247 245 245 244 244 245 246 244 246 250 253 254 255 256 256 253 253 254 257 257
328 327 327 326 324 323 322 318 311 303 294 284 275 266 263 260 257 251 249 246 244 248 249 247 243 243 243 247 249 250 253 254 255 255 254 256 255 254
318 317 315 314 313 312 310 308 305 301 293 286 279 274 269 263 258 253 250 251 251 251 249 245 244 246 248 249 249 249 252 254 256 256 255 255 251 253
306 306 306 306 304 303 302 300 297 292 287 282 279 276 270 263 259 258 257 255 253 250 249 247 246 248 249 249 250 253 254 255 255 254 254 253 252 253
295 294 294 295 294 294 293 292 290 286 281 277 273 271 269 266 263 260 257 254 252 251 251 252 251 251 250 251 253 255 256 256 255 254 254 252 251 251
288 287 285 285 285 284 283 283 281 279 278 275 272 269 267 265 262 259 257 254 253 252 252 252 253 253 254 255 256 256 256 256 254 252 251 251 251 252
282 281 280 279 278 278 277 276 275 274 273 272 270 266 264 262 261 259 258 256 255 255 255 255 256 257 256 256 257 257 258 258 257 254 252 253 254 255
Height
5762 5766 5770 5775 5779 5783 5788 5792 5796 5800 5804 5808 5811 5814 5818 5822 5826 5829 5832 5835 5838 5841 5844 5846 5849 5851 5852 5854 5855 5856 5857 5858 5859 5859 5860 5860 5860 5860
5757 5760 5764 5768 5772 5777 5781 5785 5789 5793 5797 5801 5804 5807 5811 5814 5817 5820 5824 5827 5830 5833 5836 5839 5841 5843 5845 5846 5848 5849 5850 5851 5852 5853 5853 5853 5854 5854
5752 5755 5758 5762 5766 5770 5774 5778 5782 5786 5790 5793 5796 5799 5803 5806 5809 5812 5816 5819 5822 5825 5828 5831 5833 5835 5837 5838 5840 5842 5843 5844 5845 5845 5846 5846 5846 5847
5748 5751 5754 5757 5760 5764 5767 5771 5775 5778 5782 5785 5788 5792 5795 5798 5801 5804 5808 5811 5814 5817 5820 5822 5824 5827 5829 5830 5832 5833 5835 5836 5837 5837 5838 5839 5839 5839
5745 5747 5749 5752 5755 5758 5761 5765 5768 5771 5775 5778 5781 5784 5787 5790 5793 5797 5800 5803 5806 5808 5811 5814 5816 5818 5820 5822 5823 5825 5826 5828 5829 5829 5830 5830 5831 5831
5743 5744 5746 5748 5750 5753 5755 5758 5762 5765 5767 5770 5773 5776 5779 5782 5785 5789 5792 5795 5798 5800 5803 5805 5808 5810 5812 5814 5815 5817 5818 5819 5820 5821 5822 5822 5822 5823
5741 5742 5743 5744 5745 5747 5750 5753 5755 5758 5760 5763 5765 5768 5771 5774 5777 5780 5783 5786 5789 5792 5795 5798 5800 5802 5804 5806 5807 5809 5810 5811 5812 5812 5813 5814 5814 5815
5739 5739 5739 5740 5741 5743 5745 5747 5749 5751 5754 5755 5758 5760 5763 5766 5769 5772 5775 5779 5782 5785 5787 5790 5792 5794 5796 5798 5799 5801 5802 5803 5804 5805 5805 5806 5806 5806
5738 5737 5737 5737 5738 5739 5740 5742 5743 5745 5747 5749 5751 5753 5756 5759 5762 5765 5768 5771 5774 5777 5779 5782 5784 5786 5788 5790 5791 5793 5794 5795 5796 5797 5797 5798 5798 5798
5737 5736 5735 5735 5735 5736 5736 5738 5739 5740 5742 5743 5745 5747 5749 5751 5755 5758 5760 5763 5766 5769 5772 5774 5776 5779 5781 5782 5784 5785 5786 5787 5788 5789 5789 5790 5790 5790
5737 5735 5734 5734 5733 5734 5734 5735 5735 5736 5737 5738 5739 5741 5743 5745 5748 5751 5754 5757 5759 5762 5765 5767 5769 5771 5773 5775 5776 5777 5779 5780 5781 5781 5782 5782 5782 5783
5737 5735 5734 5733 5733 5732 5732 5732 5732 5733 5733 5734 5735 5737 5738 5740 5742 5745 5748 5750 5753 5755 5758 5760 5762 5764 5766 5768 5769 5770 5772 5773 5773 5774 5775 5775 5775 5776
5738 5736 5734 5733 5732 5731 5731 5730 5730 5730 5730 5731 5731 5733 5734 5736 5738 5740 5743 5745 5747 5750 5752 5754 5756 5758 5760 5761 5763 5764 5765 5766 5767 5767 5768 5769 5769 5770
5739 5737 5735 5733 5731 5730 5729 5729 5728 5728 5728 5728 5729 5729 5731 5732 5734 5736 5738 5740 5742 5744 5746 5747 5749 5751 5753 5755 5756 5758 5759 5760 5761 5762 5762 5763 5764 5764
5740 5737 5735 5733 5732 5730 5729 5728 5727 5726 5726 5726 5726 5727 5728 5729 5730 5731 5733 5735 5737 5738 5740 5742 5744 5746 5747 5749 5750 5752 5753 5754 5755 5756 5756 5757 5758 5758
5740 5738 5736 5734 5732 5730 5728 5727 5726 5725 5725 5725 5725 5725 5725 5726 5727 5728 5730 5731 5733 5734 5735 5737 5739 5741 5742 5744 5745 5747 5748 5749 5750 5750 5751 5751 5752 5752
5740 5737 5735 5733 5732 5730 5728 5727 5725 5724 5723 5723 5723 5723 5723 5724 5724 5725 5726 5727 5729 5730 5731 5733 5734 5736 5737 5739 5740 5741 5742 5743 5744 5745 5746 5746 5747 5747
5739 5736 5734 5732 5730 5729 5727 5725 5724 5723 5722 5721 5721 5721 5721 5722 5722 5722 5723 5724 5725 5726 5728 5729 5730 5731 5733 5734 5736 5736 5737 5738 5739 5740 5740 5741 5742 5743
5736 5734 5732 5730 5728 5727 5725 5724 5722 5721 5720 5720 5719 5719 5719 5719 5719 5720 5720 5721 5722 5723 5724 5725 5726 5727 5728 5729 5731 5732 5733 5733 5734 5735 5735 5736 5737 5738
5733 5731 5729 5727 5726 5724 5723 5721 5720 5719 5718 5718 5717 5717 5716 5717 5717 5717 5717 5718 5718 5719 5720 5721 5722 5723 5724 5725 5726 5727 5728 5728 5729 5730 5730 5731 5732 5733
5727 5726 5725 5723 5722 5720 5719 5718 5717 5716 5715 5715 5714 5714 5714 5713 5713 5713 5714 5714 5715 5715 5716 5717 5718 5719 5719 5720 5721 5722 5722 5723 5724 5724 5725 5726 5727 5728
5721 5720 5719 5718 5716 5715 5714 5713 5712 5712 5711 5710 5710 5710 5709 5709 5709 5709 5710 5710 5711 5711 5712 5713 5713 5714 5715 5716 5716 5717 5717 5718 5718 5719 5720 5721 5721 5722
5712 5712 5711 5710 5709 5708 5708 5707 5706 5706 5705 5705 5704 5704 5704 5704 5704 5704 5705 5705 5706 5706 5707 5707 5708 5709 5709 5710 5711 5711 5712 5712 5713 5713 5714 5715 5716 5717